Location: Dehesa de la Cepeda
(40.6574°N, 4.3013°W)
Time: 09:56:24
(UTC+00:00)

SAR-Lupe-2 - Pass Details

Date: 05 July 2020
Orbit: 481 x 485 km, 98.1° (Epoch: 02 August)

Event Time Altitude Azimuth Distance (km) Brightness Sun altitude
Rises 21:40:14 0° 11° (N) 2,562 7.9 -16.4°
Reaches altitude 10° 21:42:19 10° 10° (N) 1,677 6.9 -16.6°
Maximum altitude 21:45:55 77° 284° (WNW) 503 3.6 -17.0°
Enters shadow 21:48:03 23° 201° (SSW) 1,075 5.0 -17.3°
